Tracking 29892 objects as of 21-Nov-2024
HD Live streaming from Space Station
objects crossing your sky now

SL-12 R/B(2)

Track SL-12 R/B(2) now!


NORAD ID: 22272
Int'l Code: 1992-088D
Perigee: 35,801.3 km
Apogee: 35,895.6 km
Inclination: 14.0 °
Period: 1,438.9 minutes
Semi major axis: 42219 km
RCS: 2.5118 m2 (large)
Launch date: December 17, 1992
Source: Commonwealth of Independent States (former USSR) (CIS)
Launch site: TYURATAM MISSILE AND SPACE COMPLEX (TTMTR)

Note: This is a ROCKET BODY
Your satellite tracking list
Your tracking list is empty




NASA's NSSDC Master Catalog

Two Line Element Set (TLE):
1 22272U 92088D   24325.36430507 -.00000156  00000-0  00000-0 0  9999
2 22272  13.9724 352.5288 0011166 156.1410  30.2557  1.00076813 41541
Source of the keplerian elements: AFSPC